sat.trackr.live / text

‹ back to catalog

STARLINK-30520

NORAD 58010 · 2023-153V

PAYLOAD ACTIVE UNKNOWN

§ Identity

Operator
Country
US
Launch date
2023-10-05
Launch site
AFETR
Launch vehicle
Mass (kg)
RCS (m²)

Purposes: comms

External: N2YO · Heavens-Above · Gunter

§ Orbital elements

Epoch: 2026-05-25T04:00:03.998880Z

Period
94.27 min
Inclination
43.0021°
Eccentricity
0.0001486
Mean motion
15.27585065 rev/d
Perigee alt
482.0 km
Apogee alt
484.1 km
Semi-major
6,861.2 km
B*
1.4211e-4
RAAN
355.0699°
Arg perigee
268.1684°
Mean anomaly
80.7771°
Rev number
585

§ Raw data

STARLINK-305201 58010U 23153V   26145.16671295  .00003651  00000+0  14211-3 0  99992 58010  43.0021 355.0699 0001486 268.1684  80.7771 15.27585065  5859

JSON: /api/v1/satellites/58010 · /tle

For live sub-satellite position, see the globe view (requires WebGL).

§ Visibility from observer

Set your observer location to see the next 7 days of passes ≥ 10°. The values pass through the URL so the page stays shareable.

No JS? Fill the form by hand. The geolocation button needs JavaScript.